Location: Bill Sadowski Park
(25.6087°N, 80.3181°W)
Time: 00:46:29
(UTC-05:00)

Amateur Radio Satellites - All Passes

Search period start: 23 January 2018 00:16
Search period end: 24 January 2018 00:16
Location: Bill Sadowski Park, 25.6087°N, 80.3181°W

Satellite Date Start Highest point End Downlink Frequencies (MHz)
Time Altitude Azimuth
SPROUT 23 Jan 00:20:57 00:25:09 73° 258° (WSW) 00:29:24 437.525
FALCONSAT 3 23 Jan 00:21:51 00:22:36 10° 142° (SE) 00:23:21 435.103
NANOSAT C BR1 23 Jan 00:23:04 00:27:20 90° 245° (WSW) 00:31:34 145.865
BUGSAT 1 23 Jan 00:24:53 00:26:38 12° 95° (E) 00:28:22 437.445
QB50P2 23 Jan 00:39:45 00:43:45 39° 285° (WNW) 00:47:43 145.880/145.840
VELOX 1 23 Jan 00:41:05 00:45:28 84° 255° (WSW) 00:49:52 145.980
DX 1 23 Jan 00:51:41 00:54:38 18° 71° (ENE) 00:57:35 434.975-435.025
O/OREOS (USA 219) 23 Jan 01:01:21 01:03:54 15° 295° (WNW) 01:06:29 437.305
YUBILEINY 23 Jan 01:02:19 01:06:42 14° 287° (WNW) 01:11:05 435.215
DUCHIFAT 1 23 Jan 01:05:57 01:09:37 29° 286° (WNW) 01:13:16 145.980
EO-79 23 Jan 01:10:41 01:13:41 19° 288° (WNW) 01:16:41 145.935-145.965
NO-84 23 Jan 01:27:13 01:29:39 23° 236° (SW) 01:32:14 435.350 FM
Oscar 19 23 Jan 01:34:57 01:40:00 56° 101° (E) 01:45:00 437.125/150
Gurwin Techsat 1B 23 Jan 01:39:00 01:44:03 44° 100° (E) 01:49:06 435.225
50 SAT 23 Jan 01:51:22 01:54:24 65° 260° (W) 01:57:26 437.505
AO-91 23 Jan 01:56:06 02:00:53 64° 283° (WNW) 02:06:03 145.960
FALCONSAT 3 23 Jan 01:57:38 02:01:18 72° 151° (SSE) 02:04:58 435.103
BUGSAT 1 23 Jan 01:58:07 02:01:58 34° 286° (WNW) 02:05:47 437.445
UKube-1 23 Jan 02:09:19 02:13:36 78° 258° (WSW) 02:17:53 .
DX 1 23 Jan 02:27:01 02:30:33 25° 262° (W) 02:34:07 434.975-435.025
ITUPSAT 1 23 Jan 02:46:15 02:50:30 34° 73° (ENE) 02:54:48 437.325
MOZHAYETS 4 23 Jan 02:54:31 02:59:08 85° 77° (ENE) 03:03:47
nSIGHT-1 23 Jan 03:04:50 03:07:34 26° 44° (NE) 03:10:17 .
CUBESAT XI-V 23 Jan 03:04:57 03:08:33 22° 72° (ENE) 03:12:09 437.345
Oscar 19 23 Jan 03:16:58 03:18:45 12° 293° (WNW) 03:20:33 437.125/150
Gurwin Techsat 1B 23 Jan 03:20:27 03:23:34 16° 291° (WNW) 03:26:40 435.225
AO-7 23 Jan 03:21:25 03:29:30 52° 103° (ESE) 03:37:30 .
BEESAT 23 Jan 03:23:44 03:28:29 82° 258° (WSW) 03:33:16 436.000
ISS 23 Jan 03:27:33 03:30:29 30° 45° (NE) 03:33:25 437.550
FALCONSAT 3 23 Jan 03:37:22 03:40:32 27° 344° (NNW) 03:43:43 435.103
SO-50 23 Jan 03:49:51 03:53:40 29° 111° (ESE) 03:57:30 436.795
KKS-1 23 Jan 04:08:48 04:10:56 13° 70° (ENE) 04:13:05 437.445
ITAMSAT 1 23 Jan 04:25:19 04:30:27 63° 285° (WNW) 04:35:36 435.822/435.867
ITUPSAT 1 23 Jan 04:25:21 04:28:18 16° 264° (W) 04:31:15 437.325
nSIGHT-1 23 Jan 04:41:47 04:43:30 14° 235° (SW) 04:45:12 .
CUBESAT XI-V 23 Jan 04:41:55 04:45:42 24° 263° (W) 04:49:30 437.345
ISS 23 Jan 05:05:14 05:06:42 12° 235° (SW) 05:08:10 437.550
DOVE 4 23 Jan 05:07:41 05:12:13 82° 283° (WNW) 05:17:02 437.250
AO-7 23 Jan 05:15:07 05:21:43 27° 296° (WNW) 05:28:19 .
M-CUBED/EXP-1 PRIME 23 Jan 05:16:50 05:20:05 88° 100° (E) 05:23:20 437.505
FALCONSAT 3 23 Jan 05:17:47 05:20:17 17° 360° (N) 05:22:47 435.103
SO-50 23 Jan 05:30:58 05:34:03 18° 303° (WNW) 05:37:11 436.795
XW-2C 23 Jan 05:38:00 05:40:49 20° 97° (E) 05:43:37 145.795 - 145.815
LilacSat-2 23 Jan 05:38:48 05:41:50 23° 97° (E) 05:44:51 437.200
KKS-1 23 Jan 05:43:04 05:47:06 35° 261° (W) 05:51:09 437.445
STARS 23 Jan 05:51:26 05:55:47 87° 261° (W) 06:00:09 437.465
KAITUO 1B 23 Jan 06:05:13 06:08:32 32° 99° (E) 06:11:50 145.475/437.950
XW-2F 23 Jan 06:11:05 06:14:45 58° 101° (E) 06:18:24 145.980 - 146.000
NUDT-PHONESAT 23 Jan 06:11:28 06:14:52 37° 99° (E) 06:18:14 437.300
CUTE-I 23 Jan 06:16:01 06:21:11 51° 100° (E) 06:26:22 437.470
XW-2D 23 Jan 06:22:58 06:26:42 76° 281° (W) 06:30:24 145.860 - 145.880
RS-15 23 Jan 06:30:11 06:41:11 41° 106° (ESE) 06:52:10 29.354- 29.394
HO-68 23 Jan 06:30:32 06:36:55 34° 100° (E) 06:43:15 435.675
XW-2B 23 Jan 06:40:50 06:44:22 42° 284° (WNW) 06:47:54 145.730 - 145.750
SEEDS 23 Jan 06:48:25 06:51:43 23° 97° (E) 06:55:00 437.485
FALCONSAT 3 23 Jan 06:56:53 07:00:01 26° 15° (NNE) 07:03:10 435.103
STRAND 1 23 Jan 07:00:59 07:05:59 62° 76° (ENE) 07:11:01 437.568
CUTE 1.7 + AOD 2 23 Jan 07:05:15 07:09:27 76° 101° (E) 07:13:37 437.475
XW-2C 23 Jan 07:12:30 07:14:44 15° 288° (WNW) 07:17:00 145.795 - 145.815
LilacSat-2 23 Jan 07:13:53 07:15:49 14° 288° (WNW) 07:17:46 437.200
XW-2A 23 Jan 07:26:31 07:28:45 17° 97° (E) 07:30:58 145.665 - 145.685
FO-29 23 Jan 07:30:48 07:37:43 57° 75° (ENE) 07:43:51 435.910
JUGNU 23 Jan 07:42:47 07:47:28 25° 164° (SSE) 07:52:08 437.505
UWE-3 23 Jan 07:43:39 07:48:17 69° 101° (E) 07:52:47 435.000/436.395/437.385
CUBEBUG 2 23 Jan 07:43:43 07:48:24 60° 284° (WNW) 07:52:59 437.445
AAUSAT CUBESAT 2 23 Jan 07:56:47 08:00:51 71° 101° (E) 08:04:56 437.432
CUTE-I 23 Jan 07:58:07 08:00:43 14° 292° (WNW) 08:03:20 437.470
ZACube-1 23 Jan 08:01:36 08:06:00 52° 100° (E) 08:10:16 437.345
AO-73 23 Jan 08:06:44 08:11:06 52° 100° (E) 08:15:20 145.935
BEESAT 3 23 Jan 08:17:55 08:21:44 49° 113° (ESE) 08:25:35 437.485
HO-68 23 Jan 08:18:13 08:24:24 33° 291° (WNW) 08:30:36 435.675
SEEDS 23 Jan 08:24:22 08:27:09 18° 288° (WNW) 08:29:57 437.485
PCSat 23 Jan 08:25:21 08:30:17 38° 108° (ESE) 08:35:16 145.827
FALCONSAT 3 23 Jan 08:35:38 08:39:17 76° 209° (SSW) 08:42:56 435.103
Oscar 11 23 Jan 08:36:57 08:41:14 74° 100° (E) 08:45:31 .
RS-15 23 Jan 08:41:36 08:53:17 49° 301° (WNW) 09:05:00 29.354- 29.394
XW-2A 23 Jan 08:59:26 09:01:12 14° 287° (WNW) 09:02:56 145.665 - 145.685
TIGRISAT 23 Jan 09:12:06 09:16:16 45° 75° (ENE) 09:20:33 435.000
BEESAT 2 23 Jan 09:12:21 09:16:11 49° 113° (ESE) 09:20:04 435.950
FO-29 23 Jan 09:18:15 09:22:41 18° 262° (W) 09:26:51 435.910
YUBILEINY 23 Jan 09:22:12 09:29:12 27° 77° (ENE) 09:36:09 435.215
UNISAT 6 23 Jan 09:27:54 09:32:17 84° 77° (ENE) 09:36:47 437.425
JUGNU 23 Jan 09:30:38 09:36:08 42° 172° (S) 09:41:37 437.505
O/OREOS (USA 219) 23 Jan 09:39:23 09:42:21 17° 66° (ENE) 09:45:19 437.305
DELFI C3 23 Jan 09:43:22 09:47:17 77° 102° (ESE) 09:51:13 145.870
Max Valier Satellite 23 Jan 09:49:22 09:52:58 54° 100° (E) 09:56:32 145.860
SRMSAT 23 Jan 09:57:02 10:00:51 18° 160° (SSE) 10:04:40 437.500
EO-88 23 Jan 10:01:42 10:05:11 47° 99° (E) 10:08:40 145.990 - 145.960
PCSat 23 Jan 10:09:49 10:13:43 20° 301° (WNW) 10:17:38 145.827
FALCONSAT 3 23 Jan 10:16:57 10:18:00 11° 217° (SW) 10:19:02 435.103
PRISM 23 Jan 10:25:54 10:29:57 79° 78° (ENE) 10:34:00 437.425
AO-85 23 Jan 10:35:08 10:38:47 42° 112° (ESE) 10:42:35 145.980
POLYITAN 1 23 Jan 10:54:58 10:57:46 17° 72° (ENE) 11:00:36 437.675
NANOSAT C BR1 23 Jan 11:07:29 11:10:42 22° 72° (ENE) 11:13:56 145.865
LO-87 23 Jan 11:12:16 11:15:41 40° 99° (E) 11:19:06 145.935 - 145.965
AIST 2D 23 Jan 11:12:50 11:16:16 51° 260° (W) 11:19:42 435.315
ESTCUBE 1 23 Jan 11:15:48 11:19:52 34° 99° (E) 11:23:55 437.505/2401.250
YUBILEINY 23 Jan 11:17:52 11:26:03 48° 270° (W) 11:34:13 435.215
O/OREOS (USA 219) 23 Jan 11:17:52 11:21:40 27° 258° (WSW) 11:25:28 437.305
JUGNU 23 Jan 11:19:16 11:24:53 49° 182° (S) 11:30:30 437.505
QB50P2 23 Jan 11:23:32 11:27:35 48° 76° (ENE) 11:31:41 145.880/145.840
SRMSAT 23 Jan 11:44:16 11:49:37 35° 168° (SSE) 11:55:00 437.500
DUCHIFAT 1 23 Jan 11:48:29 11:52:37 65° 77° (ENE) 11:56:48 145.980
EO-79 23 Jan 11:53:15 11:57:27 75° 260° (W) 12:01:40 145.935-145.965
SPROUT 23 Jan 12:14:40 12:18:36 35° 99° (E) 12:22:31 437.525
POLYITAN 1 23 Jan 12:29:50 12:33:17 25° 262° (W) 12:36:46 437.675
BUGSAT 1 23 Jan 12:38:58 12:42:53 49° 76° (ENE) 12:46:51 437.445
VELOX 1 23 Jan 12:39:16 12:43:17 34° 99° (E) 12:47:18 145.980
NANOSAT C BR1 23 Jan 12:43:11 12:46:13 19° 263° (W) 12:49:17 145.865
Oscar 19 23 Jan 12:43:44 12:48:24 35° 73° (ENE) 12:53:05 437.125/150
AO-91 23 Jan 12:46:48 12:49:44 29° 75° (ENE) 12:52:44 145.960
Gurwin Techsat 1B 23 Jan 12:52:12 12:56:50 31° 72° (ENE) 13:01:28 435.225
ESTCUBE 1 23 Jan 12:53:57 12:56:18 14° 290° (WNW) 12:58:37 437.505/2401.250
JUGNU 23 Jan 13:08:19 13:13:37 36° 192° (SSW) 13:18:55 437.505
SRMSAT 23 Jan 13:32:48 13:38:32 49° 177° (S) 13:44:17 437.500
SPROUT 23 Jan 13:52:10 13:54:05 13° 290° (WNW) 13:56:01 437.525
UKube-1 23 Jan 14:04:31 14:08:24 32° 99° (E) 14:12:16 .
SO-50 23 Jan 14:08:13 14:12:44 42° 61° (ENE) 14:17:16 436.795
AO-7 23 Jan 14:11:45 14:19:02 35° 66° (ENE) 14:26:20 .
VELOX 1 23 Jan 14:17:08 14:19:21 14° 290° (WNW) 14:21:34 145.980
DX 1 23 Jan 14:22:12 14:26:31 76° 284° (WNW) 14:30:52 434.975-435.025
Oscar 19 23 Jan 14:24:07 14:27:41 19° 263° (W) 14:31:15 437.125/150
Gurwin Techsat 1B 23 Jan 14:32:41 14:36:40 22° 263° (W) 14:40:41 435.225
50 SAT 23 Jan 14:45:09 14:47:43 24° 285° (WNW) 14:50:17 437.505
ITUPSAT 1 23 Jan 14:55:41 14:58:52 17° 97° (E) 15:02:01 437.325
NO-84 23 Jan 14:57:18 15:00:41 53° 126° (SE) 15:03:49 435.350 FM
MOZHAYETS 4 23 Jan 14:57:56 15:02:13 38° 99° (E) 15:06:27
JUGNU 23 Jan 14:58:21 15:02:13 18° 199° (SSW) 15:06:07 437.505
SRMSAT 23 Jan 15:21:51 15:27:30 44° 187° (S) 15:33:09 437.500
BEESAT 23 Jan 15:32:02 15:36:40 50° 101° (E) 15:41:17 436.000
ITAMSAT 1 23 Jan 15:34:50 15:40:00 86° 80° (E) 15:45:11 435.822/435.867
UKube-1 23 Jan 15:41:51 15:44:03 14° 290° (WNW) 15:46:16 .
RS-15 23 Jan 15:44:13 15:52:08 20° 46° (NE) 15:59:44 29.354- 29.394
SO-50 23 Jan 15:50:23 15:52:48 14° 252° (WSW) 15:55:14 436.795
M-CUBED/EXP-1 PRIME 23 Jan 15:54:06 15:57:52 28° 70° (ENE) 16:01:27 437.505
AO-7 23 Jan 16:03:52 16:11:29 40° 258° (WSW) 16:19:11 .
DOVE 4 23 Jan 16:05:34 16:09:32 35° 76° (ENE) 16:13:22 437.250
ITUPSAT 1 23 Jan 16:32:23 16:36:37 32° 287° (WNW) 16:40:51 437.325
MOZHAYETS 4 23 Jan 16:36:39 16:38:57 14° 290° (WNW) 16:41:14
CUBESAT XI-V 23 Jan 16:45:43 16:50:08 49° 285° (WNW) 16:54:33 437.345
XW-2D 23 Jan 16:57:12 16:59:23 15° 72° (ENE) 17:01:35 145.860 - 145.880
SRMSAT 23 Jan 17:11:28 17:16:21 26° 196° (SSW) 17:21:15 437.500
BEESAT 23 Jan 17:12:21 17:13:56 12° 292° (WNW) 17:15:30 436.000
XW-2B 23 Jan 17:13:55 17:17:02 24° 74° (ENE) 17:20:08 145.730 - 145.750
M-CUBED/EXP-1 PRIME 23 Jan 17:29:11 17:32:05 17° 258° (WSW) 17:34:54 437.505
CUTE-I 23 Jan 17:29:51 17:34:41 37° 73° (ENE) 17:39:31 437.470
KKS-1 23 Jan 17:41:27 17:45:56 83° 104° (ESE) 17:50:24 437.445
XW-2C 23 Jan 17:43:41 17:47:29 70° 78° (ENE) 17:51:18 145.795 - 145.815
LilacSat-2 23 Jan 17:45:24 17:49:15 83° 81° (E) 17:53:07 437.200
DOVE 4 23 Jan 17:45:51 17:47:12 11° 264° (W) 17:48:33 437.250
STARS 23 Jan 17:48:59 17:52:58 32° 99° (E) 17:56:56 437.465
CUTE 1.7 + AOD 2 23 Jan 17:50:33 17:53:31 19° 72° (ENE) 17:56:28 437.475
RS-15 23 Jan 17:54:31 18:06:01 89° 250° (WSW) 18:16:59 29.354- 29.394
nSIGHT-1 23 Jan 17:59:11 18:02:05 34° 128° (SE) 18:04:59 .
KAITUO 1B 23 Jan 18:09:49 18:13:34 72° 259° (W) 18:17:19 145.475/437.950
NUDT-PHONESAT 23 Jan 18:15:04 18:18:46 65° 259° (WSW) 18:22:28 437.300
XW-2F 23 Jan 18:17:13 18:20:47 39° 261° (W) 18:24:21 145.980 - 146.000
BEESAT 3 23 Jan 18:19:18 18:22:55 37° 62° (ENE) 18:26:29 437.485
ISS 23 Jan 18:24:48 18:27:55 46° 128° (SE) 18:31:03 437.550
XW-2D 23 Jan 18:30:14 18:33:17 23° 263° (W) 18:36:21 145.860 - 145.880
UWE-3 23 Jan 18:33:03 18:36:15 20° 72° (ENE) 18:39:31 435.000/436.395/437.385
CUBEBUG 2 23 Jan 18:33:19 18:37:21 39° 74° (ENE) 18:41:31 437.445
HO-68 23 Jan 18:36:22 18:43:32 81° 74° (ENE) 18:50:41 435.675
AAUSAT CUBESAT 2 23 Jan 18:39:56 18:42:22 15° 72° (ENE) 18:44:48 437.432
XW-2B 23 Jan 18:49:05 18:51:06 14° 264° (W) 18:53:05 145.730 - 145.750
ZACube-1 23 Jan 18:50:20 18:52:55 15° 70° (ENE) 18:55:32 437.345
AO-73 23 Jan 18:55:10 18:57:43 15° 70° (ENE) 19:00:17 145.935
SRMSAT 23 Jan 19:03:53 19:05:07 11° 202° (SSW) 19:06:22 437.500
PCSat 23 Jan 19:04:07 19:09:29 60° 66° (ENE) 19:14:47 145.827
SEEDS 23 Jan 19:06:00 19:10:13 79° 258° (WSW) 19:14:26 437.485
CUTE-I 23 Jan 19:11:07 19:14:42 18° 263° (W) 19:18:16 437.470
BEESAT 2 23 Jan 19:14:51 19:18:36 39° 62° (ENE) 19:22:16 435.950
STRAND 1 23 Jan 19:19:50 19:24:44 43° 100° (E) 19:29:36 437.568
XW-2A 23 Jan 19:20:35 19:23:48 40° 77° (ENE) 19:27:02 145.665 - 145.685
Oscar 11 23 Jan 19:24:18 19:27:26 20° 72° (ENE) 19:30:36 .
CUTE 1.7 + AOD 2 23 Jan 19:25:40 19:29:06 23° 263° (W) 19:32:31 437.475
STARS 23 Jan 19:26:29 19:28:57 15° 290° (WNW) 19:31:25 437.465
nSIGHT-1 23 Jan 19:36:59 19:38:18 12° 320° (NW) 19:39:38 .
ISS 23 Jan 20:03:47 20:04:33 11° 321° (NW) 20:05:18 437.550
UWE-3 23 Jan 20:08:55 20:12:28 24° 263° (W) 20:16:05 435.000/436.395/437.385
RS-15 23 Jan 20:11:47 20:16:44 14° 260° (W) 20:21:39 29.354- 29.394
CUBEBUG 2 23 Jan 20:12:42 20:14:03 11° 266° (W) 20:15:26 437.445
AAUSAT CUBESAT 2 23 Jan 20:14:02 20:17:31 26° 262° (W) 20:21:00 437.432
DELFI C3 23 Jan 20:22:07 20:23:59 13° 71° (ENE) 20:25:51 145.870
ZACube-1 23 Jan 20:24:54 20:28:49 32° 262° (W) 20:32:51 437.345
HO-68 23 Jan 20:29:20 20:31:38 12° 265° (W) 20:33:57 435.675
AO-73 23 Jan 20:29:36 20:33:33 32° 262° (W) 20:37:37 145.935
FO-29 23 Jan 20:33:37 20:38:49 82° 283° (WNW) 20:44:22 435.910
PCSat 23 Jan 20:50:43 20:52:16 11° 257° (WSW) 20:53:48 145.827
AO-85 23 Jan 20:52:44 20:57:52 67° 64° (ENE) 21:03:11 145.980
Oscar 11 23 Jan 20:59:54 21:03:21 23° 263° (W) 21:06:48 .
STRAND 1 23 Jan 21:00:32 21:03:28 15° 291° (WNW) 21:06:24 437.568
TIGRISAT 23 Jan 21:12:22 21:15:49 20° 96° (E) 21:19:12 435.000
UNISAT 6 23 Jan 21:27:50 21:32:06 35° 98° (E) 21:36:19 437.425
Max Valier Satellite 23 Jan 21:53:07 21:56:41 44° 260° (W) 22:00:16 145.860
DELFI C3 23 Jan 21:55:04 21:58:24 27° 262° (W) 22:01:44 145.870
EO-88 23 Jan 22:03:59 22:07:33 52° 260° (W) 22:11:07 145.990 - 145.960
ESTCUBE 1 23 Jan 22:09:11 22:11:03 12° 70° (ENE) 22:12:55 437.505/2401.250
YUBILEINY 23 Jan 22:11:56 22:19:57 41° 89° (E) 22:27:57 435.215
PRISM 23 Jan 22:15:46 22:18:49 20° 98° (E) 22:21:51 437.425
AO-85 23 Jan 22:36:52 22:37:50 10° 253° (WSW) 22:38:47 145.980
AIST 2D 23 Jan 22:46:05 22:48:36 19° 97° (E) 22:51:06 435.315
TIGRISAT 23 Jan 22:48:27 22:52:21 26° 287° (WNW) 22:56:12 435.000
UNISAT 6 23 Jan 23:05:40 23:08:25 16° 290° (WNW) 23:11:10 437.425
LO-87 23 Jan 23:12:38 23:16:08 65° 259° (W) 23:19:41 145.935 - 145.965
QB50P2 23 Jan 23:17:37 23:20:11 16° 96° (E) 23:22:45 145.880/145.840
VELOX 1 23 Jan 23:30:50 23:32:12 11° 69° (ENE) 23:33:34 145.980
DUCHIFAT 1 23 Jan 23:41:14 23:44:21 20° 97° (E) 23:47:27 145.980
O/OREOS (USA 219) 23 Jan 23:41:55 23:46:26 89° 269° (W) 23:50:57 437.305
ESTCUBE 1 23 Jan 23:43:10 23:47:25 41° 261° (W) 23:51:41 437.505/2401.250
EO-79 23 Jan 23:46:07 23:49:58 32° 99° (E) 23:53:48 145.935-145.965
PRISM 23 Jan 23:50:55 23:53:52 20° 288° (WNW) 23:56:51 437.425
